Location: Mohawk View
(42.7837°N, 73.7885°W)
Time: 07:37:38
(UTC+00:00)

ARIANE 5 R/B - Pass Details

Date: 17 June 2021
Orbit: 620 x 656 km, 98.1° (Epoch: 28 July)

Event Time Altitude Azimuth Distance (km) Brightness Sun altitude
Exits shadow 02:36:17 23° 184° (S) 1,363 3.9 -16.4°
Maximum altitude 02:38:57 61° 259° (W) 729 3.0 -16.7°
Drops below altitude 10° 02:43:23 10° 340° (NNW) 2,057 6.5 -17.1°
Sets 02:45:39 0° 344° (NNW) 2,977 7.6 -17.3°
